Location: Burbank
(38.7788°N, 114.0429°W)
Time: 22:51:00
(UTC+00:00)

Transit 2A - Pass Details

Date: 18 May 2026
Orbit: 595 x 949 km, 66.7° (Epoch: 5 June)

Event Time Altitude Azimuth Distance (km) Brightness Sun altitude
Rises 08:58:18 0° 313° (NW) 3,055 9.4 -28.3°
Enters shadow 09:00:38 - 299° (WNW) 2,313 8.5 -28.1°
Reaches altitude 10° 09:01:35 10° 290° (WNW) 2,068 - -28.0°
Maximum altitude 09:04:10 15° 256° (WSW) 1,711 - -27.8°
Drops below altitude 10° 09:06:41 10° 221° (SW) 1,977 - -27.6°
Sets 09:09:43 0° 197° (SSW) 2,842 - -27.4°
